73P/Schwassmann-Wachmann 3 (2006)

Japanese version
Home page
Updated on July 16, 2007

---------------------------------------------------------------------

* Profile

* Pictures of Component C

* Pictures of Component B


* Pictures of Component G

* Pictures of Component R

* Orbital Elements

  73P/Schwassmann-Wachmann B
Epoch 2006 May 25.0 TT = JDT 2453880.5
T 2006 June 7.92466 TT                                  MPC
q   0.9390718            (2000.0)            P               Q
n   0.18394396     Peri.  198.80779     -0.02873648     +0.98221260
a   3.0620506      Node    69.88766     -0.88989677     +0.05940885
e   0.6933193      Incl.   11.39726     -0.45525592     -0.17812634
P   5.36
>From 436 observations 2006 Jan. 6-Apr. 6, mean residual 0".67.

  73P/Schwassmann-Wachmann C
Epoch 2006 May 25.0 TT = JDT 2453880.5
T 2006 June 6.95722 TT                                  MPC
q   0.9391224            (2000.0)            P               Q
n   0.18403396     Peri.  198.81074     -0.02861081     +0.98222001
a   3.0610522      Node    69.89188     -0.88989958     +0.05950950
e   0.6932028      Incl.   11.39572     -0.45525834     -0.17805186
P   5.36
>From 829 observations 2005 Dec. 17-2006 Apr. 6, mean residual 0".61.

  73P/Schwassmann-Wachmann G
Epoch 2006 May 25.0 TT = JDT 2453880.5
T 2006 June 8.09061 TT                                  MPC
q   0.9390445            (2000.0)            P               Q
n   0.18335156     Peri.  198.79170     -0.02877990     +0.98219628
a   3.0686426      Node    69.90125     -0.88990965     +0.05940218
e   0.6939870      Incl.   11.40122     -0.45522800     -0.17821857
P   5.38
>From 200 observations 2006 Feb. 13-Apr. 6, mean residual 0".77.

  73P/Schwassmann-Wachmann H
Epoch 2006 May 25.0 TT = JDT 2453880.5
T 2006 June 8.29143 TT                                  MPC
q   0.9390996            (2000.0)            P               Q
n   0.18445957     Peri.  198.82465     -0.02878297     +0.98222305
a   3.0563418      Node    69.86824     -0.88987662     +0.05934690
e   0.6927374      Incl.   11.39480     -0.45529236     -0.17808935
P   5.34
>From 61 observations 2006 Mar. 4-Apr. 5, mean residual 0".74.

  73P/Schwassmann-Wachmann J
Epoch 2006 May 25.0 TT = JDT 2453880.5
T 2006 June 8.15961 TT                                  MPC
q   0.9389579            (2000.0)            P               Q
n   0.18610780     Peri.  198.91045     -0.02852160     +0.98227527
a   3.0382698      Node    69.79820     -0.88977982     +0.05950650
e   0.6909564      Incl.   11.38528     -0.45549796     -0.17774777
P   5.30
>From 39 observations 2006 Mar. 5-Apr. 2, mean residual 0".74.

  73P/Schwassmann-Wachmann K
Epoch 2006 May 25.0 TT = JDT 2453880.5
T 2006 June 8.25349 TT                                  MPC
q   0.9407410            (2000.0)            P               Q
n   0.18338945     Peri.  198.49339     -0.03041795     +0.98213126
a   3.0682199      Node    70.10031     -0.89033302     +0.05782782
e   0.6933919      Incl.   11.39177     -0.45429271     -0.17909253
P   5.37
>From 15 observations 2006 Mar. 5-Mar. 25, mean residual 0".70.

  73P/Schwassmann-Wachmann L
Epoch 2006 May 25.0 TT = JDT 2453880.5
T 2006 June 8.35170 TT                                  MPC
q   0.9389566            (2000.0)            P               Q
n   0.18452205     Peri.  198.85155     -0.02861397     +0.98222841
a   3.0556519      Node    69.85152     -0.88983823     +0.05951000
e   0.6927148      Incl.   11.39590     -0.45537804     -0.17800535
P   5.34
>From 25 observations 2006 Mar. 5-Apr. 4, mean residual 0".79.

  73P/Schwassmann-Wachmann M
Epoch 2006 May 25.0 TT = JDT 2453880.5
T 2006 June 8.27901 TT                                  MPC
q   0.9397602            (2000.0)            P               Q
n   0.18367772     Peri.  198.64954     -0.02944794     +0.98217822
a   3.0650088      Node    70.00237     -0.89012363     +0.05872445
e   0.6933907      Incl.   11.39321     -0.45476669     -0.17854241
P   5.37
>From 41 observations 2006 Mar. 23-Apr. 5, mean residual 0".83.

  73P/Schwassmann-Wachmann N
Epoch 2006 May 25.0 TT = JDT 2453880.5
T 2006 June 8.27383 TT                                  MPC
q   0.9402992            (2000.0)            P               Q
n   0.18351863     Peri.  198.50376     -0.03033986     +0.98214987
a   3.0667799      Node    70.09429     -0.89033183     +0.05785788
e   0.6933920      Incl.   11.38688     -0.45430026     -0.17898074
P   5.37
>From 30 observations 2006 Mar. 23-Apr. 6, mean residual 0".74.

  73P/Schwassmann-Wachmann P
Epoch 2006 May 25.0 TT = JDT 2453880.5
T 2006 June 7.91525 TT                                  MPC
q   0.9387966            (2000.0)            P               Q
n   0.18816747     Peri.  199.01175     -0.02833741     +0.98234561
a   3.0160579      Node    69.70813     -0.88967158     +0.05955220
e   0.6887339      Incl.   11.37047     -0.45572083     -0.17734327
P   5.24
>From 24 observations 2006 Mar. 23-Apr. 7, mean residual 0".85.

  73P/Schwassmann-Wachmann Q
Epoch 2006 May 25.0 TT = JDT 2453880.5
T 2006 June 7.72559 TT                                  MPC
q   0.9388296            (2000.0)            P               Q
n   0.18395339     Peri.  198.86149     -0.02860825     +0.98221509
a   3.0619459      Node    69.84237     -0.88981064     +0.05955873
e   0.6933879      Incl.   11.40103     -0.45543232     -0.17806256
P   5.36
>From 16 observations 2006 Mar. 23-Apr. 7, mean residual 0".52.

  73P/Schwassmann-Wachmann R
Epoch 2006 May 25.0 TT = JDT 2453880.5
T 2006 June 8.19422 TT                                  MPC
q   0.9395387            (2000.0)            P               Q
n   0.18374479     Peri.  198.70571     -0.02925740     +0.98219011
a   3.0642629      Node    69.95808     -0.89004209     +0.05890953
e   0.6933883      Incl.   11.39442     -0.45493855     -0.17841595
P   5.36
>From 51 observations 2006 Mar. 24-Apr. 6, mean residual 0".79.

  73P/Schwassmann-Wachmann S
Epoch 2006 May 25.0 TT = JDT 2453880.5
T 2006 June 8.64461 TT                                  MPC
q   0.9836419            (2000.0)            P               Q
n   0.17140597     Peri.  189.49381     -0.07334539     +0.97940664
a   3.2096086      Node    76.47408     -0.90184886     +0.01538951
e   0.6935321      Incl.   11.15536     -0.42578056     -0.20131022
P   5.75
>From 11 observations 2006 Mar. 24-Mar. 25, mean residual 0".91.

  73P/Schwassmann-Wachmann T
Epoch 2006 May 25.0 TT = JDT 2453880.5
T 2006 June 8.60059 TT                                  MPC
q   0.9265623            (2000.0)            P               Q
n   0.18763157     Peri.  201.65964     -0.01712807     +0.98263131
a   3.0217981      Node    67.75299     -0.88554295     +0.07089754
e   0.6933738      Incl.   11.51576     -0.46424165     -0.17149127
P   5.25
>From 19 observations 2006 Mar. 23-Apr. 2, mean residual 0".64.

  73P/Schwassmann-Wachmann U
Epoch 2006 May 25.0 TT = JDT 2453880.5
T 2006 June 8.60851 TT                                  MPC
q   0.9197852            (2000.0)            P               Q
n   0.18971570     Peri.  203.19996     -0.01145593     +0.98282508
a   2.9996266      Node    66.56522     -0.88309184     +0.07646041
e   0.6933668      Incl.   11.58037     -0.46906030     -0.16795438
P   5.20
>From 15 observations 2006 Mar. 23-Apr. 2, mean residual 0".79.

  73P/Schwassmann-Wachmann V
Epoch 2006 May 25.0 TT = JDT 2453880.5
T 2006 June 8.48985 TT                                  MPC
q   0.9126730            (2000.0)            P               Q
n   0.19194869     Peri.  204.83482     -0.00521513     +0.98299170
a   2.9763176      Node    65.31728     -0.88040687     +0.08253884
e   0.6933550      Incl.   11.65599     -0.47419041     -0.16405687
P   5.13
>From 15 observations 2006 Mar. 23-Apr. 2, mean residual 0".85.

  73P/Schwassmann-Wachmann W
T 2006 June 8.5039 TT                                   MPC
q   0.939123             (2000.0)            P               Q
n   0.1839441      Peri.  198.7865      -0.0289101      +0.9822285
a   3.062049       Node    69.8981      -0.8899431      +0.0591864
e   0.693302       Incl.   11.3896      -0.4551543      -0.1781129
P   5.36
>From 8 observations 2006 Mar. 23-Apr. 2.

  73P/Schwassmann-Wachmann X
Epoch 2006 May 25.0 TT = JDT 2453880.5
T 2006 June 8.55532 TT                                  MPC
q   0.9410789            (2000.0)            P               Q
n   0.17789248     Peri.  198.16053     -0.03089945     +0.98195847
a   3.1311051      Node    70.40207     -0.89074264     +0.05762273
e   0.6994419      Incl.   11.42160     -0.45345648     -0.18010328
P   5.54
>From 10 observations 2006 Mar. 23-Apr. 5, mean residual 0".74.

  73P/Schwassmann-Wachmann Y
T 2006 June 8.7780 TT                                   MPC
q   0.939123             (2000.0)            P               Q
n   0.1839441      Peri.  198.7744      -0.0291920      +0.9822187
a   3.062049       Node    69.8940      -0.8899517      +0.0589378
e   0.693302       Incl.   11.3904      -0.4551195      -0.1782493
P   5.36
>From 12 observations 2006 Mar. 23-Apr. 2.

  73P/Schwassmann Wachmann Z                                                    
T 2006 June 8.312 TT                                    MPC                     
q   0.94225              (2000.0)            P               Q                  
n   0.183030       Peri.  197.962        0.031901       +0.982128               
a   3.07224        Node    70.536        0.891191       +0.056071               
e   0.69330        Incl.   11.346        0.452505        0.179668               
P   5.38                   
                                                                                
